Dewpoint
51 53 54 55 54 55 56 57 57 57 57 56 55 54 50 54 55 57 56 55 56 55 54 53 53 51 52 50 47 46 45 41
51 52 54 54 54 54 55 56 56 56 56 55 54 54 51 49 51 54 57 56 57 57 56 56 55 53 52 50 47 45 43 42
52 50 52 53 53 54 54 54 55 56 57 56 54 54 50 49 50 53 56 56 57 57 56 56 55 53 51 49 47 45 44 42
51 50 50 52 52 52 53 53 54 55 55 54 50 50 50 49 49 51 52 55 55 56 56 55 55 53 51 49 47 45 43 42
51 50 49 50 51 52 52 53 53 53 52 51 50 50 49 49 47 49 50 53 54 56 56 56 55 54 52 51 48 46 44 42
51 51 50 50 50 51 51 52 52 52 51 51 50 49 49 48 48 48 49 52 53 55 56 56 55 54 53 52 50 47 47 46
50 51 51 50 50 50 51 51 51 51 50 50 50 50 49 48 48 48 49 51 53 54 56 56 55 54 54 53 52 50 51 50
50 50 50 50 49 49 50 51 51 51 50 50 49 49 49 48 47 48 49 50 51 52 54 54 54 54 54 54 53 52 52 51
49 50 50 50 49 49 49 50 50 50 50 50 49 49 48 48 48 49 50 52 52 52 54 54 54 54 54 54 53 54 53 52
48 50 50 50 49 49 49 49 49 50 50 50 49 49 48 48 49 50 52 52 53 54 54 54 54 55 55 54 54 54 53 53
48 49 50 50 49 49 49 48 48 48 49 49 49 49 50 50 50 51 52 53 53 54 55 55 56 56 56 56 56 56 55 53
47 48 49 50 50 49 48 48 48 48 48 49 50 50 50 51 51 53 54 54 54 54 55 56 56 56 56 56 55 52 52 52
44 47 49 50 51 50 48 48 47 47 48 48 50 51 52 52 52 52 53 52 55 55 55 56 56 56 53 52 51 51 51 50
42 45 48 49 50 51 50 49 48 48 48 49 50 51 52 53 53 53 53 54 55 56 56 56 55 52 51 51 50 50 49 48
37 43 44 47 49 50 51 51 50 50 49 50 50 51 52 52 53 53 54 55 55 56 57 56 56 52 50 50 50 48 47 47
35 37 41 43 47 49 50 51 52 52 51 50 51 52 53 53 54 54 55 56 56 57 57 55 52 51 50 49 48 47 46 45
29 37 39 41 44 47 49 50 51 53 53 52 52 53 54 54 54 55 56 56 57 57 55 51 50 49 44 44 46 46 45 44
29 33 39 41 43 45 46 48 49 52 53 53 54 54 54 55 56 56 56 55 53 51 50 49 48 48 41 42 43 44 43 42
31 31 35 40 44 50 50 52 51 51 52 53 53 54 55 55 53 52 49 49 49 47 46 46 45 43 40 39 39 41 39 39
Lifted_Index
2 3 2 2 2 2 2 1 1 2 3 3 3 3 4 4 4 4 5 5 5 4 3 3 2 2 1 0 -0 -0 0 1
2 3 3 2 2 2 2 2 1 2 3 3 3 4 4 4 4 3 4 4 3 3 2 2 1 1 0 0 -0 -0 0 1
2 2 3 3 2 2 2 2 2 2 3 3 4 4 4 4 3 3 3 3 3 2 1 1 1 0 0 -0 -0 0 0 0
1 1 3 3 3 3 3 3 3 3 3 3 4 4 4 4 4 4 4 3 3 2 2 1 1 0 0 -0 -0 0 0 1
0 1 2 3 3 3 3 3 3 3 3 3 4 4 4 4 4 4 4 4 4 3 2 2 1 1 0 -0 -0 -0 0 0
-0 0 1 2 3 3 3 3 3 3 3 3 4 4 4 4 4 4 5 4 4 4 3 2 1 1 -0 -1 -1 -1 -0 0
-1 -1 -0 1 2 3 3 3 3 3 3 3 3 3 4 4 4 4 4 4 4 4 3 2 2 1 -0 -1 -1 -1 -1 -0
-0 -1 -1 -0 1 2 3 3 3 3 3 3 3 3 3 3 4 4 4 4 4 4 4 3 2 1 0 -0 -0 -1 -1 -1
0 -0 -0 -0 -0 1 2 3 3 3 3 3 3 3 3 3 4 4 4 4 4 4 4 3 2 2 1 1 0 -0 -0 -0
0 -0 -0 -0 -0 0 1 2 3 3 3 3 3 3 3 3 4 4 4 4 4 4 3 3 2 1 1 1 0 1 1 1
0 -0 -0 -0 -0 -0 -0 0 1 2 3 3 3 3 3 4 4 4 4 3 4 4 3 2 2 1 1 1 1 1 2 2
0 -0 -0 -0 -0 -0 -1 -1 -0 0 1 2 2 3 3 4 4 4 3 3 3 3 3 2 1 1 1 1 1 1 2 2
1 0 -0 -0 -1 -1 -1 -1 -1 -1 -1 -0 0 1 2 2 3 3 3 3 3 3 2 2 1 1 1 1 1 2 2 2
1 1 0 -0 -1 -1 -1 -1 -1 -1 -1 -1 -1 -0 0 1 1 2 2 2 2 2 1 1 0 0 0 1 1 2 2 1
1 1 0 -0 -1 -1 -1 -1 -1 -1 -1 -1 -1 -1 -1 -0 0 1 1 1 1 1 0 0 -0 -1 -0 0 1 1 1 1
1 1 1 0 -0 -1 -1 -1 -1 -1 -1 -1 -1 -1 -1 -1 -1 -0 -0 -0 -1 -0 -1 -1 -1 -1 -1 -0 0 0 0 0
1 1 1 0 -0 -0 -0 -1 -1 -1 -1 -1 -1 -1 -1 -1 -1 -1 -1 -1 -1 -1 -1 -1 -2 -2 -2 -1 -1 -0 0 1
1 1 1 0 -0 -0 -1 -1 -1 -1 -1 -1 -1 -1 -1 -1 -1 -2 -2 -2 -2 -2 -2 -2 -2 -2 -2 -1 -0 0 1 2
1 1 0 0 -0 -1 -1 -1 -1 -1 -1 -1 -1 -1 -1 -1 -1 -2 -2 -2 -2 -2 -2 -1 -2 -1 -1 -0 0 2 3 3